Time,TemperatureF,DewpointF,PressureIn,WindDirection,WindDirectionDegrees,WindSpeedMPH,WindSpeedGustMPH,Humidity,HourlyPrecipIn,Conditions,Clouds,dailyrainin,SoftwareType,DateUTC
2013-07-13 00:02:00,66.4,57.1,29.98,North,7,0.0,0.0,72,0.00,,,0.00,VWS V13.01,2013-07-13 05:02:00,
2013-07-13 00:07:00,66.2,58.4,29.98,North,7,0.0,0.0,76,0.00,,,0.00,VWS V13.01,2013-07-13 05:07:00,
2013-07-13 00:12:00,66.0,58.6,29.98,NNE,21,0.0,0.0,77,0.00,,,0.00,VWS V13.01,2013-07-13 05:12:00,
2013-07-13 00:17:00,65.6,57.9,29.98,NNE,21,0.0,0.0,76,0.00,,,0.00,VWS V13.01,2013-07-13 05:17:00,
2013-07-13 00:22:00,65.5,58.4,29.98,NNE,21,0.0,0.0,78,0.00,,,0.00,VWS V13.01,2013-07-13 05:22:00,
2013-07-13 00:27:00,65.1,58.4,29.98,NNE,21,0.0,0.0,79,0.00,,,0.00,VWS V13.01,2013-07-13 05:27:00,
2013-07-13 00:32:00,64.9,59.0,29.98,NNE,21,0.0,0.0,81,0.00,,,0.00,VWS V13.01,2013-07-13 05:32:00,
2013-07-13 00:36:00,64.6,59.3,29.98,NNE,21,0.0,0.0,83,0.00,,,0.00,VWS V13.01,2013-07-13 05:36:00,
2013-07-13 00:41:00,64.2,58.9,29.98,NNE,21,0.0,0.0,83,0.00,,,0.00,VWS V13.01,2013-07-13 05:41:00,
2013-07-13 00:46:00,63.8,59.2,29.98,NNE,21,0.0,0.0,85,0.00,,,0.00,VWS V13.01,2013-07-13 05:46:00,
2013-07-13 00:51:00,63.7,59.4,29.98,NNE,26,0.0,0.0,86,0.00,,,0.00,VWS V13.01,2013-07-13 05:51:00,
2013-07-13 00:56:00,63.3,59.0,29.98,NNE,26,0.0,0.0,86,0.00,,,0.00,VWS V13.01,2013-07-13 05:56:00,
2013-07-13 01:01:00,63.3,59.7,29.98,NNE,26,0.0,0.0,88,0.00,,,0.00,VWS V13.01,2013-07-13 06:01:00,
2013-07-13 01:06:00,63.1,59.2,29.98,NNE,26,0.0,0.0,87,0.00,,,0.00,VWS V13.01,2013-07-13 06:06:00,
2013-07-13 01:11:00,63.3,59.4,29.98,NNE,26,0.0,0.0,87,0.00,,,0.00,VWS V13.01,2013-07-13 06:11:00,
2013-07-13 01:16:00,63.5,59.5,29.98,NNE,26,0.0,0.0,87,0.00,,,0.00,VWS V13.01,2013-07-13 06:16:00,
2013-07-13 01:21:00,63.5,58.9,29.98,NNE,26,0.0,0.0,85,0.00,,,0.00,VWS V13.01,2013-07-13 06:21:00,
2013-07-13 01:26:00,63.3,58.7,29.98,NNE,26,0.0,0.0,85,0.00,,,0.00,VWS V13.01,2013-07-13 06:26:00,
2013-07-13 01:31:00,63.1,58.5,29.98,NNE,26,0.0,0.0,85,0.00,,,0.00,VWS V13.01,2013-07-13 06:31:00,
2013-07-13 01:36:00,62.8,58.5,29.98,NNE,26,0.0,0.0,86,0.00,,,0.00,VWS V13.01,2013-07-13 06:36:00,
2013-07-13 01:41:00,62.4,58.2,29.98,NNE,26,0.0,0.0,86,0.00,,,0.00,VWS V13.01,2013-07-13 06:41:00,
2013-07-13 01:46:00,62.0,58.1,29.98,NNE,26,0.0,0.0,87,0.00,,,0.00,VWS V13.01,2013-07-13 06:46:00,
2013-07-13 01:51:00,61.9,58.0,29.98,NNE,26,0.0,0.0,87,0.00,,,0.00,VWS V13.01,2013-07-13 06:51:00,
2013-07-13 01:56:00,61.9,58.0,29.98,NNE,26,0.0,0.0,87,0.00,,,0.00,VWS V13.01,2013-07-13 06:56:00,
2013-07-13 02:01:00,61.9,58.0,29.98,NNE,26,0.0,0.0,87,0.00,,,0.00,VWS V13.01,2013-07-13 07:01:00,
2013-07-13 02:06:00,62.0,58.1,29.98,NNE,26,0.0,0.0,87,0.00,,,0.00,VWS V13.01,2013-07-13 07:06:00,
2013-07-13 02:11:00,62.2,58.3,29.98,NNE,26,0.0,0.0,87,0.00,,,0.00,VWS V13.01,2013-07-13 07:11:00,
2013-07-13 02:16:00,62.2,58.0,29.98,NNE,26,0.0,0.0,86,0.00,,,0.00,VWS V13.01,2013-07-13 07:16:00,
2013-07-13 02:21:00,62.2,57.7,29.98,NNE,26,0.0,0.0,85,0.00,,,0.00,VWS V13.01,2013-07-13 07:21:00,
2013-07-13 02:26:00,62.0,57.5,29.98,NNE,26,0.0,0.0,85,0.00,,,0.00,VWS V13.01,2013-07-13 07:26:00,
2013-07-13 02:31:00,61.9,57.0,29.98,NNE,26,0.0,0.0,84,0.00,,,0.00,VWS V13.01,2013-07-13 07:31:00,
2013-07-13 02:36:00,61.7,56.8,29.98,NNE,26,0.0,0.0,84,0.00,,,0.00,VWS V13.01,2013-07-13 07:36:00,
2013-07-13 02:41:00,61.5,56.3,29.98,NNE,26,0.0,0.0,83,0.00,,,0.00,VWS V13.01,2013-07-13 07:41:00,
2013-07-13 02:46:00,61.7,57.8,29.98,NNE,17,0.0,0.0,87,0.00,,,0.00,VWS V13.01,2013-07-13 07:46:00,
2013-07-13 02:51:00,61.7,57.5,29.98,NNE,17,0.0,0.0,86,0.00,,,0.00,VWS V13.01,2013-07-13 07:51:00,
2013-07-13 02:56:00,61.5,57.0,29.98,NNE,17,0.0,0.0,85,0.00,,,0.00,VWS V13.01,2013-07-13 07:56:00,
2013-07-13 03:01:00,61.5,57.0,29.98,NNE,17,0.0,0.0,85,0.00,,,0.00,VWS V13.01,2013-07-13 08:01:00,
2013-07-13 03:06:00,61.3,57.1,29.98,NNE,17,0.0,0.0,86,0.00,,,0.00,VWS V13.01,2013-07-13 08:06:00,
2013-07-13 03:11:00,61.3,57.7,29.98,NNE,17,0.0,0.0,88,0.00,,,0.00,VWS V13.01,2013-07-13 08:11:00,
2013-07-13 03:16:00,61.1,57.9,29.98,NNE,17,0.0,0.0,89,0.00,,,0.00,VWS V13.01,2013-07-13 08:16:00,
2013-07-13 03:21:00,61.0,57.4,29.98,NNE,17,0.0,0.0,88,0.00,,,0.00,VWS V13.01,2013-07-13 08:21:00,
2013-07-13 03:26:00,60.6,57.3,29.98,NNE,26,0.0,0.0,89,0.00,,,0.00,VWS V13.01,2013-07-13 08:26:00,
2013-07-13 03:31:00,60.2,57.3,29.98,NNE,26,0.0,0.0,90,0.00,,,0.00,VWS V13.01,2013-07-13 08:31:00,
2013-07-13 03:36:00,60.1,57.4,29.98,NNE,26,0.0,0.0,91,0.00,,,0.00,VWS V13.01,2013-07-13 08:36:00,
2013-07-13 03:41:00,60.1,57.4,29.98,NNE,26,0.0,0.0,91,0.00,,,0.00,VWS V13.01,2013-07-13 08:41:00,
2013-07-13 03:46:00,60.1,57.7,29.98,NNE,33,0.0,0.0,92,0.00,,,0.00,VWS V13.01,2013-07-13 08:46:00,
2013-07-13 03:51:00,60.1,58.0,29.98,NNE,33,0.0,0.0,93,0.00,,,0.00,VWS V13.01,2013-07-13 08:51:00,
2013-07-13 03:56:00,59.9,57.9,29.98,NNE,33,0.0,0.0,93,0.00,,,0.00,VWS V13.01,2013-07-13 08:56:00,
2013-07-13 04:01:00,59.7,57.7,29.98,NNE,33,0.0,0.0,93,0.00,,,0.00,VWS V13.01,2013-07-13 09:01:00,
2013-07-13 04:06:00,59.7,58.0,29.98,NNE,33,0.0,0.0,94,0.00,,,0.00,VWS V13.01,2013-07-13 09:06:00,
2013-07-13 04:11:00,59.7,57.7,29.98,NNE,33,0.0,0.0,93,0.00,,,0.00,VWS V13.01,2013-07-13 09:11:00,
2013-07-13 04:16:00,59.7,57.7,29.98,NE,34,2.7,3.1,93,0.00,,,0.00,VWS V13.01,2013-07-13 09:16:00,
2013-07-13 04:21:00,59.3,57.9,29.98,NE,35,2.7,3.1,95,0.00,,,0.00,VWS V13.01,2013-07-13 09:21:00,
2013-07-13 04:26:00,59.2,58.0,29.98,NE,39,3.1,3.1,96,0.00,,,0.00,VWS V13.01,2013-07-13 09:26:00,
2013-07-13 04:31:00,58.8,58.0,29.98,NE,39,2.7,2.7,97,0.00,,,0.00,VWS V13.01,2013-07-13 09:31:00,
2013-07-13 04:36:00,58.6,58.1,29.98,NE,39,2.7,2.7,98,0.00,,,0.00,VWS V13.01,2013-07-13 09:36:00,
2013-07-13 04:41:00,58.6,58.3,29.98,NE,39,0.0,0.0,99,0.00,,,0.00,VWS V13.01,2013-07-13 09:41:00,
2013-07-13 04:46:00,58.6,58.1,29.98,NE,39,0.0,0.0,98,0.00,,,0.00,VWS V13.01,2013-07-13 09:46:00,
2013-07-13 04:51:00,58.6,58.1,29.98,NE,39,0.0,0.0,98,0.00,,,0.00,VWS V13.01,2013-07-13 09:51:00,
2013-07-13 04:56:00,58.6,58.1,29.98,NE,39,0.0,0.0,98,0.00,,,0.00,VWS V13.01,2013-07-13 09:56:00,
2013-07-13 05:01:00,58.4,57.9,30.01,NE,39,0.0,0.0,98,0.00,,,0.00,VWS V13.01,2013-07-13 10:01:00,
2013-07-13 05:06:00,58.4,57.9,30.01,NE,39,0.0,0.0,98,0.00,,,0.00,VWS V13.01,2013-07-13 10:06:00,
2013-07-13 05:11:00,58.3,57.4,30.01,NE,39,0.0,0.0,97,0.00,,,0.00,VWS V13.01,2013-07-13 10:11:00,
2013-07-13 05:16:00,58.3,57.7,30.01,NE,39,0.0,0.0,98,0.00,,,0.00,VWS V13.01,2013-07-13 10:16:00,
2013-07-13 05:21:00,58.1,57.5,30.01,NE,39,0.0,0.0,98,0.00,,,0.00,VWS V13.01,2013-07-13 10:21:00,
2013-07-13 05:26:00,58.1,57.5,30.01,NE,39,0.0,0.0,98,0.00,,,0.00,VWS V13.01,2013-07-13 10:26:00,
2013-07-13 05:31:00,57.9,57.6,30.01,NE,39,2.7,3.1,99,0.00,,,0.00,VWS V13.01,2013-07-13 10:31:00,
2013-07-13 05:36:00,57.7,57.4,30.01,NE,39,0.0,0.0,99,0.00,,,0.00,VWS V13.01,2013-07-13 10:36:00,
2013-07-13 05:41:00,57.7,57.4,30.01,NE,39,0.0,0.0,99,0.00,,,0.00,VWS V13.01,2013-07-13 10:41:00,
2013-07-13 05:46:00,57.5,57.5,30.01,NE,43,0.0,0.0,100,0.00,,,0.00,VWS V13.01,2013-07-13 10:46:00,
2013-07-13 05:51:00,57.5,57.5,30.01,NE,43,0.0,0.0,100,0.00,,,0.00,VWS V13.01,2013-07-13 10:51:00,
2013-07-13 05:56:00,57.4,57.1,30.01,NE,43,0.0,0.0,99,0.00,,,0.00,VWS V13.01,2013-07-13 10:56:00,
2013-07-13 06:01:00,57.4,57.1,30.01,NE,43,0.0,0.0,99,0.00,,,0.00,VWS V13.01,2013-07-13 11:01:00,
2013-07-13 06:06:00,57.4,57.1,30.01,NE,43,0.0,0.0,99,0.00,,,0.00,VWS V13.01,2013-07-13 11:06:00,
2013-07-13 06:11:00,57.2,56.9,30.01,NE,43,0.0,0.0,99,0.00,,,0.00,VWS V13.01,2013-07-13 11:11:00,
2013-07-13 06:16:00,57.2,56.9,30.01,NE,43,0.0,0.0,99,0.00,,,0.00,VWS V13.01,2013-07-13 11:16:00,
2013-07-13 06:21:00,57.0,56.7,30.01,NE,43,0.0,0.0,99,0.00,,,0.00,VWS V13.01,2013-07-13 11:21:00,
2013-07-13 06:26:00,57.2,57.2,30.01,NE,43,0.0,0.0,100,0.00,,,0.00,VWS V13.01,2013-07-13 11:26:00,
2013-07-13 06:31:00,57.2,57.2,30.01,NE,43,0.0,0.0,100,0.00,,,0.00,VWS V13.01,2013-07-13 11:31:00,
2013-07-13 06:36:00,57.2,57.2,30.01,NE,43,0.0,0.0,100,0.00,,,0.00,VWS V13.01,2013-07-13 11:36:00,
2013-07-13 06:41:00,57.2,57.2,30.01,NE,43,0.0,0.0,100,0.00,,,0.00,VWS V13.01,2013-07-13 11:41:00,
2013-07-13 06:46:00,57.2,57.2,30.01,NE,43,0.0,0.0,100,0.00,,,0.00,VWS V13.01,2013-07-13 11:46:00,
2013-07-13 06:51:00,57.4,57.4,30.01,NE,43,0.0,0.0,100,0.00,,,0.00,VWS V13.01,2013-07-13 11:51:00,
2013-07-13 06:56:00,57.5,57.5,30.01,NE,43,0.0,0.0,100,0.00,,,0.00,VWS V13.01,2013-07-13 11:56:00,
2013-07-13 07:01:00,57.7,57.7,30.01,NE,43,0.0,0.0,100,0.00,,,0.00,VWS V13.01,2013-07-13 12:01:00,
2013-07-13 07:06:00,58.1,58.1,30.01,NE,43,0.0,0.0,100,0.00,,,0.00,VWS V13.01,2013-07-13 12:06:00,
2013-07-13 07:11:00,58.6,58.6,30.01,NE,43,0.0,0.0,100,0.00,,,0.00,VWS V13.01,2013-07-13 12:11:00,
2013-07-13 07:16:00,59.3,59.1,30.01,NE,43,0.0,0.0,99,0.00,,,0.00,VWS V13.01,2013-07-13 12:16:00,
2013-07-13 07:20:00,60.1,59.2,30.01,NE,43,0.0,0.0,97,0.00,,,0.00,VWS V13.01,2013-07-13 12:20:00,
2013-07-13 07:25:00,60.8,59.3,30.01,NE,43,0.0,0.0,95,0.00,,,0.00,VWS V13.01,2013-07-13 12:25:00,
2013-07-13 07:30:00,61.5,57.6,30.01,NNE,31,0.0,0.0,87,0.00,,,0.00,VWS V13.01,2013-07-13 12:30:00,
2013-07-13 07:35:00,62.4,57.5,30.01,NE,37,0.0,0.0,84,0.00,,,0.00,VWS V13.01,2013-07-13 12:35:00,
2013-07-13 07:40:00,63.3,57.4,30.01,NE,37,0.0,0.0,81,0.00,,,0.00,VWS V13.01,2013-07-13 12:40:00,
2013-07-13 07:45:00,64.2,57.9,30.01,NE,37,0.0,0.0,80,0.00,,,0.00,VWS V13.01,2013-07-13 12:45:00,
2013-07-13 07:50:00,64.6,57.2,30.01,NE,37,0.0,0.0,77,0.00,,,0.00,VWS V13.01,2013-07-13 12:50:00,
2013-07-13 07:55:00,65.1,57.7,30.01,NE,37,0.0,0.0,77,0.00,,,0.00,VWS V13.01,2013-07-13 12:55:00,
2013-07-13 08:00:00,65.6,57.5,30.01,NE,37,0.0,0.0,75,0.00,,,0.00,VWS V13.01,2013-07-13 13:00:00,
2013-07-13 08:05:00,66.0,57.1,30.01,NE,36,0.0,0.0,73,0.00,,,0.00,VWS V13.01,2013-07-13 13:05:00,
2013-07-13 08:10:00,66.2,57.3,30.01,NNE,17,0.0,0.0,73,0.00,,,0.00,VWS V13.01,2013-07-13 13:10:00,
2013-07-13 08:15:00,66.4,57.1,30.01,NNE,17,0.0,0.0,72,0.00,,,0.00,VWS V13.01,2013-07-13 13:15:00,
2013-07-13 08:20:00,66.9,57.6,30.01,NNE,17,0.0,0.0,72,0.00,,,0.00,VWS V13.01,2013-07-13 13:20:00,
2013-07-13 08:25:00,67.8,58.1,30.01,NNE,17,0.0,0.0,71,0.00,,,0.00,VWS V13.01,2013-07-13 13:25:00,
2013-07-13 08:30:00,68.7,56.9,30.01,NNE,17,0.0,0.0,66,0.00,,,0.00,VWS V13.01,2013-07-13 13:30:00,
2013-07-13 08:35:00,69.4,57.2,30.01,NNE,17,0.0,0.0,65,0.00,,,0.00,VWS V13.01,2013-07-13 13:35:00,
2013-07-13 08:40:00,69.6,57.3,30.01,WNW,292,0.0,0.0,65,0.00,,,0.00,VWS V13.01,2013-07-13 13:40:00,
2013-07-13 08:45:00,69.6,57.3,30.01,West,260,0.0,0.0,65,0.00,,,0.00,VWS V13.01,2013-07-13 13:45:00,
2013-07-13 08:50:00,70.0,57.2,30.01,ESE,117,0.0,0.0,64,0.00,,,0.00,VWS V13.01,2013-07-13 13:50:00,
2013-07-13 08:55:00,70.7,57.9,30.01,ESE,117,0.0,0.0,64,0.00,,,0.00,VWS V13.01,2013-07-13 13:55:00,
2013-07-13 09:00:00,71.2,57.5,30.04,ESE,113,0.0,0.0,62,0.00,,,0.00,VWS V13.01,2013-07-13 14:00:00,
2013-07-13 09:05:00,72.1,56.5,30.04,WNW,294,0.0,0.0,58,0.00,,,0.00,VWS V13.01,2013-07-13 14:05:00,
2013-07-13 09:10:00,73.0,57.4,30.04,East,97,3.1,3.1,58,0.00,,,0.00,VWS V13.01,2013-07-13 14:10:00,
2013-07-13 09:15:00,73.9,56.8,30.04,SSE,150,2.2,2.2,55,0.00,,,0.00,VWS V13.01,2013-07-13 14:15:00,
2013-07-13 09:20:00,74.8,56.6,30.04,East,101,2.2,2.7,53,0.00,,,0.00,VWS V13.01,2013-07-13 14:20:00,
2013-07-13 09:25:00,75.5,56.2,30.04,ENE,74,2.7,3.1,51,0.00,,,0.00,VWS V13.01,2013-07-13 14:25:00,
2013-07-13 09:30:00,75.9,56.5,30.04,NE,40,3.1,3.1,51,0.00,,,0.00,VWS V13.01,2013-07-13 14:30:00,
2013-07-13 09:35:00,76.4,57.0,30.04,NNE,29,4.9,5.8,51,0.00,,,0.00,VWS V13.01,2013-07-13 14:35:00,
2013-07-13 09:40:00,75.9,56.0,30.04,NNW,336,3.1,4.0,50,0.00,,,0.00,VWS V13.01,2013-07-13 14:40:00,
2013-07-13 09:45:00,76.3,56.3,30.01,NNE,22,2.2,3.6,50,0.00,,,0.00,VWS V13.01,2013-07-13 14:45:00,
2013-07-13 09:50:00,77.0,56.9,30.01,North,357,2.7,3.6,50,0.00,,,0.00,VWS V13.01,2013-07-13 14:50:00,
2013-07-13 09:55:00,77.0,56.9,30.01,ESE,106,4.0,4.0,50,0.00,,,0.00,VWS V13.01,2013-07-13 14:55:00,
2013-07-13 10:00:00,77.2,57.1,30.01,NE,49,3.6,3.6,50,0.00,,,0.00,VWS V13.01,2013-07-13 15:00:00,
2013-07-13 10:05:00,77.5,56.3,30.01,ENE,57,0.0,4.9,48,0.00,,,0.00,VWS V13.01,2013-07-13 15:05:00,
2013-07-13 10:10:00,77.9,56.0,30.01,ESE,106,4.9,4.9,47,0.00,,,0.00,VWS V13.01,2013-07-13 15:10:00,
2013-07-13 10:15:00,77.5,56.9,30.01,South,175,3.1,4.0,49,0.00,,,0.00,VWS V13.01,2013-07-13 15:15:00,
2013-07-13 10:20:00,77.3,56.1,30.01,ESE,122,5.4,5.4,48,0.00,,,0.00,VWS V13.01,2013-07-13 15:20:00,
2013-07-13 10:25:00,77.7,56.5,30.01,NNE,16,3.1,5.4,48,0.00,,,0.00,VWS V13.01,2013-07-13 15:25:00,
2013-07-13 10:30:00,78.8,56.3,30.01,NNW,331,4.0,4.0,46,0.00,,,0.00,VWS V13.01,2013-07-13 15:30:00,
2013-07-13 10:35:00,78.8,56.3,30.01,ENE,78,3.6,5.4,46,0.00,,,0.00,VWS V13.01,2013-07-13 15:35:00,
2013-07-13 10:40:00,79.1,56.0,30.01,NE,46,3.1,4.0,45,0.00,,,0.00,VWS V13.01,2013-07-13 15:40:00,
2013-07-13 10:45:00,79.3,54.9,30.01,ESE,116,4.9,4.9,43,0.00,,,0.00,VWS V13.01,2013-07-13 15:45:00,
2013-07-13 10:50:00,79.1,55.4,30.01,NNW,344,2.7,2.7,44,0.00,,,0.00,VWS V13.01,2013-07-13 15:50:00,
2013-07-13 10:55:00,79.9,56.0,30.01,East,98,4.0,4.0,44,0.00,,,0.00,VWS V13.01,2013-07-13 15:55:00,
2013-07-13 11:00:00,79.9,56.0,30.01,NNE,31,3.1,3.1,44,0.00,,,0.00,VWS V13.01,2013-07-13 16:00:00,
2013-07-13 11:05:00,80.0,56.2,30.01,NE,47,3.6,3.6,44,0.00,,,0.00,VWS V13.01,2013-07-13 16:05:00,
2013-07-13 11:10:00,79.7,55.9,30.01,ENE,77,2.7,3.1,44,0.00,,,0.00,VWS V13.01,2013-07-13 16:10:00,
2013-07-13 11:15:00,79.9,56.7,30.01,ESE,120,2.7,3.1,45,0.00,,,0.00,VWS V13.01,2013-07-13 16:15:00,
2013-07-13 11:20:00,79.5,55.7,30.01,ESE,103,3.6,4.0,44,0.00,,,0.00,VWS V13.01,2013-07-13 16:20:00,
2013-07-13 11:25:00,79.7,55.9,30.01,SE,127,4.0,5.4,44,0.00,,,0.00,VWS V13.01,2013-07-13 16:25:00,
2013-07-13 11:30:00,80.6,56.0,30.01,North,354,3.6,4.0,43,0.00,,,0.00,VWS V13.01,2013-07-13 16:30:00,
2013-07-13 11:35:00,80.8,56.2,30.01,West,279,2.2,2.2,43,0.00,,,0.00,VWS V13.01,2013-07-13 16:35:00,
2013-07-13 11:40:00,80.9,57.0,30.01,SW,233,2.7,3.1,44,0.00,,,0.00,VWS V13.01,2013-07-13 16:40:00,
2013-07-13 11:45:00,81.5,57.5,29.98,ESE,105,4.0,5.8,44,0.00,,,0.00,VWS V13.01,2013-07-13 16:45:00,
2013-07-13 11:50:00,80.8,55.5,29.98,West,260,2.7,4.0,42,0.00,,,0.00,VWS V13.01,2013-07-13 16:50:00,
2013-07-13 11:55:00,80.0,55.5,29.98,NNW,327,3.1,4.9,43,0.00,,,0.00,VWS V13.01,2013-07-13 16:55:00,
2013-07-13 12:00:00,80.2,57.6,30.01,SSE,154,3.1,4.9,46,0.00,,,0.00,VWS V13.01,2013-07-13 17:00:00,
2013-07-13 12:05:00,80.0,56.8,30.01,ESE,123,4.0,6.3,45,0.00,,,0.00,VWS V13.01,2013-07-13 17:05:00,
2013-07-13 12:10:00,80.0,58.0,30.01,East,80,3.1,4.0,47,0.00,,,0.00,VWS V13.01,2013-07-13 17:10:00,
2013-07-13 12:15:00,81.1,57.2,30.01,South,174,4.0,4.9,44,0.00,,,0.00,VWS V13.01,2013-07-13 17:15:00,
2013-07-13 12:20:00,81.1,57.8,30.01,SW,214,3.6,3.6,45,0.00,,,0.00,VWS V13.01,2013-07-13 17:20:00,
2013-07-13 12:25:00,80.9,57.0,30.01,SSE,160,3.6,8.1,44,0.00,,,0.00,VWS V13.01,2013-07-13 17:25:00,
2013-07-13 12:30:00,80.6,56.0,30.01,West,279,3.6,4.9,43,0.00,,,0.00,VWS V13.01,2013-07-13 17:30:00,
2013-07-13 12:35:00,80.9,57.6,30.01,South,187,3.1,4.9,45,0.00,,,0.00,VWS V13.01,2013-07-13 17:35:00,
2013-07-13 12:40:00,81.1,59.0,30.01,SE,133,4.0,4.0,47,0.00,,,0.00,VWS V13.01,2013-07-13 17:40:00,
2013-07-13 12:45:00,81.3,56.7,29.98,South,175,3.6,5.4,43,0.00,,,0.00,VWS V13.01,2013-07-13 17:45:00,
2013-07-13 12:50:00,81.3,58.0,29.98,SSE,164,3.1,5.4,45,0.00,,,0.00,VWS V13.01,2013-07-13 17:50:00,
2013-07-13 12:55:00,81.3,56.7,29.98,East,87,5.4,5.8,43,0.00,,,0.00,VWS V13.01,2013-07-13 17:55:00,
2013-07-13 13:00:00,81.8,57.2,29.98,SE,130,4.0,4.9,43,0.00,,,0.00,VWS V13.01,2013-07-13 18:00:00,
2013-07-13 13:05:00,82.0,57.3,29.98,SSW,193,3.6,3.6,43,0.00,,,0.00,VWS V13.01,2013-07-13 18:05:00,
2013-07-13 13:10:00,82.4,58.3,29.98,SSW,206,3.1,5.4,44,0.00,,,0.00,VWS V13.01,2013-07-13 18:10:00,
2013-07-13 13:15:00,82.4,57.7,29.98,SSW,213,3.6,3.6,43,0.00,,,0.00,VWS V13.01,2013-07-13 18:15:00,
2013-07-13 13:20:00,82.6,57.2,29.98,South,176,3.6,6.3,42,0.00,,,0.00,VWS V13.01,2013-07-13 18:20:00,
2013-07-13 13:25:00,82.7,57.3,29.98,South,180,3.6,5.4,42,0.00,,,0.00,VWS V13.01,2013-07-13 18:25:00,
2013-07-13 13:30:00,82.7,58.0,29.98,SW,227,5.4,5.4,43,0.00,,,0.00,VWS V13.01,2013-07-13 18:30:00,
2013-07-13 13:35:00,83.3,57.8,29.98,SW,227,4.0,5.4,42,0.00,,,0.00,VWS V13.01,2013-07-13 18:35:00,
2013-07-13 13:40:00,83.6,58.8,29.98,SW,228,5.4,5.8,43,0.00,,,0.00,VWS V13.01,2013-07-13 18:40:00,
2013-07-13 13:44:00,83.5,57.3,29.98,South,179,6.7,7.6,41,0.00,,,0.00,VWS V13.01,2013-07-13 18:44:00,
2013-07-13 13:49:00,82.9,56.8,29.98,SSE,150,2.7,2.7,41,0.00,,,0.00,VWS V13.01,2013-07-13 18:49:00,
2013-07-13 13:54:00,83.3,57.2,29.98,WSW,243,3.1,4.9,41,0.00,,,0.00,VWS V13.01,2013-07-13 18:54:00,
2013-07-13 13:59:00,83.6,58.1,29.98,WSW,246,2.2,2.7,42,0.00,,,0.00,VWS V13.01,2013-07-13 18:59:00,
2013-07-13 14:04:00,84.4,58.1,29.98,South,181,4.0,4.0,41,0.00,,,0.00,VWS V13.01,2013-07-13 19:04:00,
2013-07-13 14:09:00,84.0,57.1,29.98,WSW,237,2.2,3.6,40,0.00,,,0.00,VWS V13.01,2013-07-13 19:09:00,
2013-07-13 14:14:00,84.2,58.6,29.98,SSE,159,2.2,3.1,42,0.00,,,0.00,VWS V13.01,2013-07-13 19:14:00,
2013-07-13 14:19:00,84.5,59.0,29.98,SSE,147,2.7,3.6,42,0.00,,,0.00,VWS V13.01,2013-07-13 19:19:00,
2013-07-13 14:24:00,84.5,58.3,29.98,SSE,147,5.4,5.4,41,0.00,,,0.00,VWS V13.01,2013-07-13 19:24:00,
2013-07-13 14:29:00,84.2,58.0,29.95,SSE,157,4.5,5.8,41,0.00,,,0.00,VWS V13.01,2013-07-13 19:29:00,
2013-07-13 14:34:00,84.0,57.8,29.95,SSE,147,4.0,4.0,41,0.00,,,0.00,VWS V13.01,2013-07-13 19:34:00,
2013-07-13 14:39:00,84.0,57.1,29.95,South,169,3.1,4.0,40,0.00,,,0.00,VWS V13.01,2013-07-13 19:39:00,
2013-07-13 14:44:00,83.6,58.1,29.95,SSE,150,4.0,4.0,42,0.00,,,0.00,VWS V13.01,2013-07-13 19:44:00,
2013-07-13 14:49:00,83.8,58.3,29.95,ESE,122,3.1,3.1,42,0.00,,,0.00,VWS V13.01,2013-07-13 19:49:00,
2013-07-13 14:54:00,84.0,58.5,29.95,SW,229,2.2,2.7,42,0.00,,,0.00,VWS V13.01,2013-07-13 19:54:00,
2013-07-13 14:59:00,84.2,57.3,29.95,SSW,193,3.6,5.8,40,0.00,,,0.00,VWS V13.01,2013-07-13 19:59:00,
2013-07-13 15:04:00,83.8,59.0,29.95,South,169,2.7,2.7,43,0.00,,,0.00,VWS V13.01,2013-07-13 20:04:00,
2013-07-13 15:09:00,83.8,59.0,29.95,South,181,5.8,5.8,43,0.00,,,0.00,VWS V13.01,2013-07-13 20:09:00,
2013-07-13 15:14:00,83.6,58.8,29.95,SSE,156,5.4,5.4,43,0.00,,,0.00,VWS V13.01,2013-07-13 20:14:00,
2013-07-13 15:19:00,83.8,59.0,29.95,SSW,200,3.1,3.1,43,0.00,,,0.00,VWS V13.01,2013-07-13 20:19:00,
2013-07-13 15:24:00,84.0,58.5,29.95,SE,128,2.2,2.2,42,0.00,,,0.00,VWS V13.01,2013-07-13 20:24:00,
2013-07-13 15:29:00,84.0,58.5,29.95,South,182,4.0,4.0,42,0.00,,,0.00,VWS V13.01,2013-07-13 20:29:00,
2013-07-13 15:34:00,83.6,58.8,29.95,SE,143,2.7,3.6,43,0.00,,,0.00,VWS V13.01,2013-07-13 20:34:00,
2013-07-13 15:39:00,83.8,59.0,29.95,SE,133,4.0,4.0,43,0.00,,,0.00,VWS V13.01,2013-07-13 20:39:00,
2013-07-13 15:44:00,83.5,58.6,29.95,SSE,166,2.7,2.7,43,0.00,,,0.00,VWS V13.01,2013-07-13 20:44:00,
2013-07-13 15:49:00,83.5,58.6,29.95,SSE,153,3.1,3.1,43,0.00,,,0.00,VWS V13.01,2013-07-13 20:49:00,
2013-07-13 15:54:00,83.3,59.1,29.95,South,181,3.1,3.1,44,0.00,,,0.00,VWS V13.01,2013-07-13 20:54:00,
2013-07-13 15:59:00,83.1,58.3,29.95,South,170,3.6,3.6,43,0.00,,,0.00,VWS V13.01,2013-07-13 20:59:00,
2013-07-13 16:04:00,83.1,58.3,29.95,SE,138,2.2,2.2,43,0.00,,,0.00,VWS V13.01,2013-07-13 21:04:00,
2013-07-13 16:09:00,83.5,58.6,29.95,ESE,115,2.2,2.2,43,0.00,,,0.00,VWS V13.01,2013-07-13 21:09:00,
2013-07-13 16:14:00,83.6,58.8,29.95,SSE,147,4.0,4.0,43,0.00,,,0.00,VWS V13.01,2013-07-13 21:14:00,
2013-07-13 16:19:00,83.5,58.6,29.95,SSE,166,3.6,3.6,43,0.00,,,0.00,VWS V13.01,2013-07-13 21:19:00,
2013-07-13 16:24:00,83.1,57.7,29.95,SSE,165,2.2,3.6,42,0.00,,,0.00,VWS V13.01,2013-07-13 21:24:00,
2013-07-13 16:29:00,82.9,58.8,29.95,SSE,162,0.0,0.0,44,0.00,,,0.00,VWS V13.01,2013-07-13 21:29:00,
2013-07-13 16:34:00,83.1,59.0,29.95,South,172,2.7,3.1,44,0.00,,,0.00,VWS V13.01,2013-07-13 21:34:00,
2013-07-13 16:39:00,83.1,59.6,29.95,SE,143,2.7,2.7,45,0.00,,,0.00,VWS V13.01,2013-07-13 21:39:00,
2013-07-13 16:44:00,83.1,59.6,29.95,SE,136,0.0,0.0,45,0.00,,,0.00,VWS V13.01,2013-07-13 21:44:00,
2013-07-13 16:49:00,83.6,59.4,29.95,SE,125,2.2,3.1,44,0.00,,,0.00,VWS V13.01,2013-07-13 21:49:00,
2013-07-13 16:54:00,83.5,59.3,29.95,South,179,3.1,3.1,44,0.00,,,0.00,VWS V13.01,2013-07-13 21:54:00,
2013-07-13 16:59:00,83.3,59.8,29.95,ESE,111,0.0,0.0,45,0.00,,,0.00,VWS V13.01,2013-07-13 21:59:00,
2013-07-13 17:04:00,83.1,59.6,29.95,East,93,0.0,0.0,45,0.00,,,0.00,VWS V13.01,2013-07-13 22:04:00,
2013-07-13 17:09:00,82.9,60.0,29.95,ESE,112,0.0,0.0,46,0.00,,,0.00,VWS V13.01,2013-07-13 22:09:00,
2013-07-13 17:14:00,82.9,61.2,29.95,East,81,0.0,0.0,48,0.00,,,0.00,VWS V13.01,2013-07-13 22:14:00,
2013-07-13 17:19:00,83.5,60.5,29.95,ENE,78,0.0,0.0,46,0.00,,,0.00,VWS V13.01,2013-07-13 22:19:00,
2013-07-13 17:24:00,83.6,60.7,29.95,ENE,78,0.0,0.0,46,0.00,,,0.00,VWS V13.01,2013-07-13 22:24:00,
2013-07-13 17:29:00,83.5,61.1,29.95,East,79,0.0,0.0,47,0.00,,,0.00,VWS V13.01,2013-07-13 22:29:00,
2013-07-13 17:34:00,83.3,59.8,29.95,East,79,0.0,0.0,45,0.00,,,0.00,VWS V13.01,2013-07-13 22:34:00,
2013-07-13 17:39:00,83.3,59.8,29.95,East,79,0.0,0.0,45,0.00,,,0.00,VWS V13.01,2013-07-13 22:39:00,
2013-07-13 17:44:00,83.1,60.8,29.92,East,94,0.0,0.0,47,0.00,,,0.00,VWS V13.01,2013-07-13 22:44:00,
2013-07-13 17:49:00,82.7,61.7,29.92,NE,51,0.0,0.0,49,0.00,,,0.00,VWS V13.01,2013-07-13 22:49:00,
2013-07-13 17:54:00,82.7,61.7,29.92,NE,51,0.0,0.0,49,0.00,,,0.00,VWS V13.01,2013-07-13 22:54:00,
2013-07-13 17:59:00,82.7,61.7,29.92,NE,51,0.0,0.0,49,0.00,,,0.00,VWS V13.01,2013-07-13 22:59:00,
2013-07-13 18:04:00,82.9,61.8,29.92,NE,51,0.0,0.0,49,0.00,,,0.00,VWS V13.01,2013-07-13 23:04:00,
2013-07-13 18:09:00,82.6,60.3,29.92,East,80,2.7,2.7,47,0.00,,,0.00,VWS V13.01,2013-07-13 23:09:00,
2013-07-13 18:14:00,81.8,60.2,29.92,ESE,108,3.6,3.6,48,0.00,,,0.00,VWS V13.01,2013-07-13 23:14:00,
2013-07-13 18:19:00,81.5,60.5,29.92,SE,125,2.2,2.2,49,0.00,,,0.00,VWS V13.01,2013-07-13 23:19:00,
2013-07-13 18:24:00,81.1,60.2,29.92,East,95,0.0,0.0,49,0.00,,,0.00,VWS V13.01,2013-07-13 23:24:00,
2013-07-13 18:29:00,81.1,60.2,29.92,East,95,0.0,0.0,49,0.00,,,0.00,VWS V13.01,2013-07-13 23:29:00,
2013-07-13 18:34:00,81.1,60.7,29.92,East,95,0.0,0.0,50,0.00,,,0.00,VWS V13.01,2013-07-13 23:34:00,
2013-07-13 18:39:00,81.3,60.9,29.92,East,95,0.0,0.0,50,0.00,,,0.00,VWS V13.01,2013-07-13 23:39:00,
2013-07-13 18:44:00,81.5,61.1,29.95,East,95,0.0,0.0,50,0.00,,,0.00,VWS V13.01,2013-07-13 23:44:00,
2013-07-13 18:49:00,81.5,61.1,29.95,East,95,0.0,0.0,50,0.00,,,0.00,VWS V13.01,2013-07-13 23:49:00,
2013-07-13 18:54:00,81.5,60.5,29.95,East,95,0.0,0.0,49,0.00,,,0.00,VWS V13.01,2013-07-13 23:54:00,
2013-07-13 18:59:00,81.5,60.5,29.95,East,95,0.0,0.0,49,0.00,,,0.00,VWS V13.01,2013-07-13 23:59:00,
2013-07-13 19:04:00,81.5,61.1,29.95,East,95,0.0,0.0,50,0.00,,,0.00,VWS V13.01,2013-07-14 00:04:00,
2013-07-13 19:09:00,81.5,61.1,29.95,East,95,0.0,0.0,50,0.00,,,0.00,VWS V13.01,2013-07-14 00:09:00,
2013-07-13 19:14:00,81.1,60.7,29.92,East,95,0.0,0.0,50,0.00,,,0.00,VWS V13.01,2013-07-14 00:14:00,
2013-07-13 19:19:00,80.4,61.2,29.92,East,95,0.0,0.0,52,0.00,,,0.00,VWS V13.01,2013-07-14 00:19:00,
2013-07-13 19:24:00,79.7,60.5,29.92,East,95,0.0,0.0,52,0.00,,,0.00,VWS V13.01,2013-07-14 00:24:00,
2013-07-13 19:29:00,79.3,60.2,29.92,East,95,0.0,0.0,52,0.00,,,0.00,VWS V13.01,2013-07-14 00:29:00,
2013-07-13 19:34:00,79.3,60.7,29.92,East,95,0.0,0.0,53,0.00,,,0.00,VWS V13.01,2013-07-14 00:34:00,
2013-07-13 19:39:00,79.1,60.0,29.92,East,95,0.0,0.0,52,0.00,,,0.00,VWS V13.01,2013-07-14 00:39:00,
2013-07-13 19:44:00,78.6,60.6,29.92,East,95,0.0,0.0,54,0.00,,,0.00,VWS V13.01,2013-07-14 00:44:00,
2013-07-13 19:49:00,78.1,62.6,29.92,East,95,0.0,0.0,59,0.00,,,0.00,VWS V13.01,2013-07-14 00:49:00,
2013-07-13 19:54:00,77.9,62.9,29.92,East,95,0.0,0.0,60,0.00,,,0.00,VWS V13.01,2013-07-14 00:54:00,
2013-07-13 19:59:00,77.7,61.3,29.92,East,95,0.0,0.0,57,0.00,,,0.00,VWS V13.01,2013-07-14 00:59:00,
2013-07-13 20:04:00,77.7,61.8,29.92,East,87,0.0,0.0,58,0.00,,,0.00,VWS V13.01,2013-07-14 01:04:00,
2013-07-13 20:09:00,77.3,61.4,29.92,East,87,0.0,0.0,58,0.00,,,0.00,VWS V13.01,2013-07-14 01:09:00,
2013-07-13 20:14:00,76.8,60.9,29.92,East,87,0.0,0.0,58,0.00,,,0.00,VWS V13.01,2013-07-14 01:14:00,
2013-07-13 20:19:00,76.3,62.3,29.92,East,87,0.0,0.0,62,0.00,,,0.00,VWS V13.01,2013-07-14 01:19:00,
2013-07-13 20:24:00,75.9,61.5,29.92,NE,41,0.0,0.0,61,0.00,,,0.00,VWS V13.01,2013-07-14 01:24:00,
2013-07-13 20:29:00,75.7,61.3,29.92,North,10,0.0,0.0,61,0.00,,,0.00,VWS V13.01,2013-07-14 01:29:00,
2013-07-13 20:33:00,75.7,62.7,29.92,North,10,0.0,0.0,64,0.00,,,0.00,VWS V13.01,2013-07-14 01:33:00,
2013-07-13 20:38:00,75.4,62.3,29.92,North,10,0.0,0.0,64,0.00,,,0.00,VWS V13.01,2013-07-14 01:38:00,
2013-07-13 20:43:00,75.0,61.6,29.92,North,10,0.0,0.0,63,0.00,,,0.00,VWS V13.01,2013-07-14 01:43:00,
2013-07-13 20:48:00,75.0,62.0,29.92,North,10,0.0,0.0,64,0.00,,,0.00,VWS V13.01,2013-07-14 01:48:00,
2013-07-13 20:53:00,74.6,61.7,29.92,North,10,0.0,0.0,64,0.00,,,0.00,VWS V13.01,2013-07-14 01:53:00,
2013-07-13 20:58:00,74.5,61.9,29.92,North,10,0.0,0.0,65,0.00,,,0.00,VWS V13.01,2013-07-14 01:58:00,
2013-07-13 21:03:00,73.9,62.3,29.92,North,6,0.0,0.0,67,0.00,,,0.00,VWS V13.01,2013-07-14 02:03:00,
2013-07-13 21:08:00,73.6,63.2,29.92,North,6,0.0,0.0,70,0.00,,,0.00,VWS V13.01,2013-07-14 02:08:00,
2013-07-13 21:13:00,73.2,63.2,29.92,NNE,31,0.0,0.0,71,0.00,,,0.00,VWS V13.01,2013-07-14 02:13:00,
2013-07-13 21:18:00,73.0,63.1,29.92,NNE,30,0.0,0.0,71,0.00,,,0.00,VWS V13.01,2013-07-14 02:18:00,
2013-07-13 21:23:00,72.8,63.7,29.92,NE,35,2.7,3.6,73,0.00,,,0.00,VWS V13.01,2013-07-14 02:23:00,
2013-07-13 21:28:00,72.7,62.3,29.92,NE,35,2.7,3.1,70,0.00,,,0.00,VWS V13.01,2013-07-14 02:28:00,
2013-07-13 21:33:00,72.5,62.2,29.92,NE,35,0.0,0.0,70,0.00,,,0.00,VWS V13.01,2013-07-14 02:33:00,
2013-07-13 21:38:00,72.3,62.0,29.92,NE,35,0.0,0.0,70,0.00,,,0.00,VWS V13.01,2013-07-14 02:38:00,
2013-07-13 21:43:00,72.1,61.4,29.92,NE,35,0.0,0.0,69,0.00,,,0.00,VWS V13.01,2013-07-14 02:43:00,
2013-07-13 21:48:00,72.1,61.4,29.92,NNE,22,0.0,0.0,69,0.00,,,0.00,VWS V13.01,2013-07-14 02:48:00,
2013-07-13 21:53:00,71.9,60.8,29.92,NNE,19,0.0,0.0,68,0.00,,,0.00,VWS V13.01,2013-07-14 02:53:00,
2013-07-13 21:58:00,71.9,60.8,29.92,ENE,68,0.0,0.0,68,0.00,,,0.00,VWS V13.01,2013-07-14 02:58:00,
2013-07-13 22:03:00,71.8,61.5,29.95,ENE,64,0.0,0.0,70,0.00,,,0.00,VWS V13.01,2013-07-14 03:03:00,
2013-07-13 22:08:00,71.4,61.1,29.95,ENE,64,0.0,0.0,70,0.00,,,0.00,VWS V13.01,2013-07-14 03:08:00,
2013-07-13 22:13:00,71.2,60.5,29.95,ENE,71,0.0,0.0,69,0.00,,,0.00,VWS V13.01,2013-07-14 03:13:00,
2013-07-13 22:18:00,71.2,58.9,29.95,NNE,30,2.2,3.1,65,0.00,,,0.00,VWS V13.01,2013-07-14 03:18:00,
2013-07-13 22:23:00,71.6,58.8,29.95,NW,323,2.7,3.1,64,0.00,,,0.00,VWS V13.01,2013-07-14 03:23:00,
2013-07-13 22:28:00,71.9,58.7,29.95,North,354,0.0,0.0,63,0.00,,,0.00,VWS V13.01,2013-07-14 03:28:00,
2013-07-13 22:33:00,72.1,58.8,29.95,NE,55,0.0,0.0,63,0.00,,,0.00,VWS V13.01,2013-07-14 03:33:00,
2013-07-13 22:38:00,71.9,58.7,29.95,NE,55,0.0,0.0,63,0.00,,,0.00,VWS V13.01,2013-07-14 03:38:00,
2013-07-13 22:43:00,71.9,59.1,29.95,NE,55,0.0,0.0,64,0.00,,,0.00,VWS V13.01,2013-07-14 03:43:00,
2013-07-13 22:48:00,71.8,58.9,29.92,NE,55,0.0,0.0,64,0.00,,,0.00,VWS V13.01,2013-07-14 03:48:00,
2013-07-13 22:53:00,71.6,58.3,29.92,North,357,0.0,0.0,63,0.00,,,0.00,VWS V13.01,2013-07-14 03:53:00,
2013-07-13 22:58:00,71.4,58.2,29.95,North,356,0.0,0.0,63,0.00,,,0.00,VWS V13.01,2013-07-14 03:58:00,
2013-07-13 23:01:00,71.4,58.2,29.95,NNE,12,2.7,2.7,63,0.00,,,0.00,VWS V13.01,2013-07-14 04:01:00,
2013-07-13 23:06:00,71.2,58.4,29.95,NE,40,3.6,3.6,64,0.00,,,0.00,VWS V13.01,2013-07-14 04:06:00,
2013-07-13 23:11:00,71.0,58.7,29.95,NE,39,3.6,3.6,65,0.00,,,0.00,VWS V13.01,2013-07-14 04:11:00,
2013-07-13 23:16:00,70.9,57.7,29.95,NNE,30,3.6,3.6,63,0.00,,,0.00,VWS V13.01,2013-07-14 04:16:00,
2013-07-13 23:21:00,70.9,57.7,29.95,NE,49,0.0,0.0,63,0.00,,,0.00,VWS V13.01,2013-07-14 04:21:00,
2013-07-13 23:26:00,71.0,57.4,29.95,East,83,2.2,3.1,62,0.00,,,0.00,VWS V13.01,2013-07-14 04:26:00,
2013-07-13 23:31:00,71.6,57.4,29.95,East,96,0.0,3.1,61,0.00,,,0.00,VWS V13.01,2013-07-14 04:31:00,
2013-07-13 23:36:00,71.9,57.8,29.95,East,96,0.0,0.0,61,0.00,,,0.00,VWS V13.01,2013-07-14 04:36:00,
2013-07-13 23:41:00,72.1,57.0,29.95,NNE,24,2.7,3.1,59,0.00,,,0.00,VWS V13.01,2013-07-14 04:41:00,
2013-07-13 23:46:00,72.5,57.3,29.98,NNE,22,2.7,4.0,59,0.00,,,0.00,VWS V13.01,2013-07-14 04:46:00,
2013-07-13 23:51:00,72.7,57.5,29.98,NE,47,3.1,3.1,59,0.00,,,0.00,VWS V13.01,2013-07-14 04:51:00,
2013-07-13 23:56:00,72.7,57.0,29.98,NNE,30,0.0,3.1,58,0.00,,,0.00,VWS V13.01,2013-07-14 04:56:00,